[[{"header":{"parameterUnit":"m.s-1","parameterCategory":1,"la1":30.2991,"la2":30.254,"lo1":-89.0895,"lo2":-89.0444,"dy":0.0017,"dx":0.0017,"nx":28,"ny":28,"refTime":"2025-01-21T03:00:00:Z","depth":0,"parameterNumber":2,"parameterNumberName":"U-component_of_WINDS"},"data":[0,0,0,0,0,0,0,0,0,0,0,0,0,0,0,0,0,0,0,0,0,0,0,0,0,0,0,0,0,0,0,0,0,0,0,0,0,0,0,0,0,0,0,0,0,0,0,0,0,0,0,0,0,0,0,0,0,0,-1.5683,-1.5683,0,-1.564,-1.5639,-1.5639,-1.5537,-1.5535,-1.5532,-1.553,-1.549,-1.5491,-1.5492,0,0,0,0,0,0,0,0,0,0,0,0,0,-1.5679,-1.568,-1.5683,-1.5683,-1.5682,-1.564,-1.5639,-1.5639,-1.5537,-1.5534,-1.5532,-1.5529,-1.5489,-1.5491,-1.5492,0,0,0,0,0,0,0,0,0,0,0,0,0,-1.5663,-1.568,-1.5683,-1.5626,-1.562,-1.564,-1.5639,-1.5639,-1.5538,-1.5534,-1.5531,-1.5528,-1.5489,-1.549,-1.5492,-1.5565,0,0,-1.5496,-1.5497,0,0,0,0,0,0,0,0,-1.5664,-1.5664,-1.5635,-1.563,-1.5624,-1.559,-1.5623,-1.5614,-1.5538,-1.5569,-1.553,-1.5527,-1.5526,-1.5524,-1.5523,-1.5563,-1.5561,-1.5496,-1.5497,-1.5498,-1.5498,0,0,0,0,0,0,0,-1.5666,-1.5665,-1.5666,-1.5635,-1.5628,-1.5603,-1.5597,-1.5621,-1.5566,-1.5566,-1.5559,-1.5555,-1.5522,-1.5522,-1.5522,-1.556,-1.5496,-1.5497,-1.5498,-1.5499,-1.5657,-1.566,0,0,0,0,0,0,-1.5675,-1.5667,-1.5667,-1.5665,-1.5636,-1.5606,-1.5599,-1.5604,-1.5566,-1.5557,-1.5558,-1.555,-1.5521,-1.552,-1.552,-1.5603,-1.5498,-1.5499,-1.55,-1.5653,-1.5657,-1.5661,0,0,0,0,0,0,-1.5675,-1.5676,-1.5669,-1.5664,-1.5661,-1.5609,-1.5616,-1.5605,-1.5605,-1.5559,-1.5549,-1.5567,-1.5519,-1.5518,-1.5554,-1.56,-1.5499,-1.5501,-1.5649,-1.5655,-1.5659,-1.5769,0,0,0,0,0,0,-1.5675,-1.5676,-1.5703,-1.5665,-1.5661,-1.5704,-1.5619,-1.5607,-1.5607,-1.5597,-1.5566,-1.5557,-1.5516,-1.5552,-1.5555,-1.56,-1.5502,-1.5645,-1.5652,-1.5658,-1.5762,-1.5778,-1.5791,0,0,0,0,0,-1.5676,-1.5737,-1.5705,-1.5706,-1.5694,-1.5707,-1.5705,-1.5655,-1.5611,-1.5638,-1.5608,-1.5558,-1.5594,-1.5557,-1.5559,-1.5605,-1.5642,-1.565,-1.5657,-1.5755,-1.5775,-1.5791,0,0,0,0,0,0,-1.5784,-1.5731,-1.5695,-1.5745,-1.5731,-1.5689,-1.5722,-1.5678,-1.5677,-1.5668,-1.5607,-1.5601,-1.5645,-1.5628,-1.5588,-1.5673,-1.561,-1.5618,-1.5683,-1.5701,-1.5716,-1.572,-1.5503,0,0,0,0,0,-1.5813,-1.5827,-1.578,-1.5829,-1.5824,-1.5774,-1.5778,-1.5741,-1.5724,-1.5718,-1.5691,-1.5677,-1.5685,-1.5692,-1.5697,-1.5757,-1.575,-1.579,-1.5805,-1.5818,-1.5827,-1.5858,-1.5875,-1.5686,-1.5686,-1.5686,0,0,-1.5875,-1.5847,-1.586,-1.585,-1.5835,-1.5852,-1.577,-1.5791,-1.5803,-1.5721,-1.5754,-1.5733,-1.5714,-1.5763,-1.5783,-1.575,-1.5876,-1.5827,-1.5838,-1.584,-1.5867,-1.5885,-1.5901,-1.5691,-1.569,-1.5689,0,0,-1.5996,-1.5976,-1.6015,-1.6,-1.5977,-1.5943,-1.5953,-1.5917,-1.59,-1.5931,-1.587,-1.5883,-1.5898,-1.5887,-1.5884,-1.5998,-1.5953,-1.6001,-1.6081,-1.6112,-1.6127,-1.614,-1.6182,-1.6198,-1.601,-1.601,-1.601,0,-1.6076,-1.6097,-1.6041,-1.6065,-1.6063,-1.5987,-1.6027,-1.6016,-1.5997,-1.5997,-1.596,-1.5976,-1.5958,-1.6003,-1.6031,-1.603,-1.604,-1.6006,-1.6129,-1.6142,-1.6153,-1.6193,-1.6208,-1.6016,-1.6016,-1.6015,-1.6014,0,-1.6197,-1.6213,-1.6248,-1.6229,-1.623,-1.6263,-1.6211,-1.6219,-1.6181,-1.6152,-1.6185,-1.6159,-1.6158,-1.6165,-1.6129,-1.6206,-1.6186,-1.614,-1.6075,-1.6178,-1.6214,-1.6229,-1.6025,-1.6023,-1.6021,-1.602,0,0,-1.6388,-1.6336,-1.635,-1.634,-1.6308,-1.632,-1.6349,-1.6345,-1.6354,-1.6342,-1.6366,-1.6379,-1.6336,-1.6332,-1.6293,-1.632,-1.6414,-1.627,-1.6269,-1.63,-1.6498,-1.6534,-1.6553,-1.6382,-1.6385,-1.6387,-1.65,0,-1.6503,-1.6548,-1.6497,-1.6554,-1.6568,-1.6495,-1.652,-1.6504,-1.6477,-1.6485,-1.6455,-1.6466,-1.6407,-1.6404,-1.6428,-1.6398,-1.6453,-1.6388,-1.6405,-1.6406,-1.6414,-1.6571,-1.661,-1.6719,-1.6514,-1.6516,-1.6518,0,-1.6644,-1.6638,-1.6696,-1.6659,-1.6663,-1.6687,-1.6679,-1.6688,-1.6668,-1.6646,-1.6641,-1.6593,-1.6619,-1.6554,-1.659,-1.6547,-1.655,-1.6536,-1.6539,-1.6541,-1.647,-1.6579,-1.6752,-1.6769,-1.6539,-1.6537,-1.6536,0,-1.678,-1.6785,-1.682,-1.6814,-1.6772,-1.6791,-1.6774,-1.675,-1.6751,-1.6745,-1.6745,-1.6743,-1.6742,-1.6741,-1.6694,-1.6651,-1.6736,-1.6667,-1.672,-1.6721,-1.6743,-1.6743,-1.6921,-1.6742,-1.6742,-1.6741,-1.6741,0,-1.6915,-1.6954,-1.6881,-1.6903,-1.6944,-1.6884,-1.6927,-1.6902,-1.6882,-1.6898,-1.6834,-1.6852,-1.6788,-1.6798,-1.6762,-1.6797,-1.6797,-1.6781,-1.6771,-1.6788,-1.679,-1.6791,-1.6783,-1.6746,-1.6745,-1.6744,-1.6743,0,-1.7075,-1.7027,-1.7061,-1.7017,-1.7007,-1.704,-1.7003,-1.7022,-1.6989,-1.7011,-1.7012,-1.6962,-1.6971,-1.6923,-1.6924,-1.6899,-1.6953,-1.693,-1.696,-1.6954,-1.701,-1.7006,-1.7196,-1.7219,-1.7024,-1.7026,-1.7028,0,-1.7165,-1.7193,-1.7152,-1.7158,-1.7144,-1.7155,-1.7155,-1.7097,-1.71,-1.7078,-1.71,-1.7103,-1.7102,-1.712,-1.7084,-1.7084,-1.7061,-1.7127,-1.7061,-1.7077,-1.7064,-1.7064,-1.7067,-1.7143,-1.7145,-1.7147,-1.7148,0,-1.7332,-1.7306,-1.7309,-1.7303,-1.7305,-1.7298,-1.7287,-1.7295,-1.7232,-1.7239,-1.7246,-1.7246,-1.7245,-1.725,-1.7242,-1.7226,-1.7178,-1.7169,-1.7182,-1.72,-1.7218,-1.7211,-1.7001,-1.7166,-1.7164,-1.7163,-1.7162,-1.7161,-1.7461,-1.7482,-1.7456,-1.7461,-1.7446,-1.7436,-1.7452,-1.742,-1.7425,-1.742,-1.7385,-1.7399,-1.7377,-1.7361,-1.7349,-1.736,-1.7328,-1.7346,-1.7351,-1.7357,-1.7368,-1.7214,-1.7358,-1.7357,-1.7357,-1.7356,-1.7356,0,-1.7625,-1.7605,-1.7609,-1.7595,-1.7599,-1.755,-1.7535,-1.7542,-1.7555,-1.7537,-1.7538,-1.7546,-1.755,-1.7513,-1.7512,-1.7527,-1.7505,-1.7529,-1.7529,-1.7526,-1.7395,-1.7385,-1.7547,-1.7547,-1.7547,-1.7547,-1.7547,-1.7547,-1.7712,-1.7745,-1.7717,-1.7742,-1.7721,-1.7734,-1.7729,-1.772,-1.7706,-1.7718,-1.772,-1.7695,-1.767,-1.7666,-1.7668,-1.7656,-1.766,-1.7692,-1.7674,-1.7553,-1.7535,-1.7517,-1.7508,-1.7693,-1.7693,-1.7804,-1.7805,-1.7806]},{"header":{"parameterUnit":"m.s-1","parameterCategory":1,"la1":30.2991,"la2":30.254,"lo1":-89.0895,"lo2":-89.0444,"dy":0.0017,"dx":0.0017,"nx":28,"ny":28,"refTime":"2025-01-21T03:00:00:Z","depth":0,"parameterNumber":3,"parameterNumberName":"V-component_of_WINDS"},"data":[0,0,0,0,0,0,0,0,0,0,0,0,0,0,0,0,0,0,0,0,0,0,0,0,0,0,0,0,0,0,0,0,0,0,0,0,0,0,0,0,0,0,0,0,0,0,0,0,0,0,0,0,0,0,0,0,0,0,-9.9698,-9.9698,0,-9.9767,-9.9768,-9.9769,-9.9569,-9.9562,-9.9556,-9.955,-9.9618,-9.9625,-9.9633,0,0,0,0,0,0,0,0,0,0,0,0,0,-9.9386,-9.9392,-9.9697,-9.9698,-9.9699,-9.9767,-9.9768,-9.9769,-9.957,-9.9562,-9.9555,-9.9548,-9.9615,-9.9624,-9.9633,0,0,0,0,0,0,0,0,0,0,0,0,0,-9.9495,-9.9395,-9.9697,-9.9608,-9.9601,-9.9767,-9.9768,-9.9769,-9.9571,-9.9562,-9.9553,-9.9544,-9.9612,-9.9623,-9.9635,-9.9889,0,0,-9.9669,-9.9674,0,0,0,0,0,0,0,0,-9.9489,-9.9506,-9.962,-9.9614,-9.9606,-9.965,-9.9683,-9.981,-9.9574,-9.9582,-9.955,-9.9539,-9.9636,-9.9644,-9.9678,-9.9893,-9.9895,-9.967,-9.9677,-9.9682,-9.9685,0,0,0,0,0,0,0,-9.9482,-9.9502,-9.9725,-9.9622,-9.9614,-9.9562,-9.9568,-9.9706,-9.966,-9.9581,-9.9566,-9.9578,-9.963,-9.9667,-9.9678,-9.9896,-9.967,-9.968,-9.9687,-9.9691,-10.0323,-10.0332,0,0,0,0,0,0,-9.9486,-9.9497,-9.9723,-9.9727,-9.9524,-9.9576,-9.9582,-9.9645,-9.9658,-9.9651,-9.9586,-9.9568,-9.9653,-9.9665,-9.9679,-9.9979,-9.9682,-9.9692,-9.9699,-10.0313,-10.0325,-10.0336,0,0,0,0,0,0,-9.948,-9.9508,-9.972,-9.9608,-9.9631,-9.9591,-9.9664,-9.9651,-9.9688,-9.9661,-9.9652,-9.9633,-9.9646,-9.9664,-9.9839,-9.9978,-9.9697,-9.9708,-10.0301,-10.0317,-10.033,-10.058,0,0,0,0,0,0,-9.9472,-9.9507,-9.9605,-9.9612,-9.9638,-9.9881,-9.9673,-9.966,-9.9709,-9.9687,-9.9703,-9.9697,-9.964,-9.9823,-9.985,-9.9989,-9.9717,-10.0288,-10.0308,-10.0326,-10.056,-10.0602,-10.0638,0,0,0,0,0,-9.9462,-9.9672,-9.9611,-9.964,-9.976,-9.9889,-9.9904,-9.9835,-9.9721,-9.9818,-9.9801,-9.9696,-9.9959,-9.9843,-9.9871,-10.0016,-10.0279,-10.0302,-10.0324,-10.0542,-10.0594,-10.0638,0,0,0,0,0,0,-9.9681,-9.9671,-9.9604,-9.9823,-9.9859,-9.9855,-9.9976,-9.9892,-9.996,-9.9937,-9.9847,-9.9852,-10.0044,-10.0046,-9.9918,-10.0263,-10.0099,-10.0128,-10.0255,-10.0304,-10.0342,-10.0338,-9.9726,0,0,0,0,0,-9.9755,-9.9863,-9.9847,-10.0041,-10.0063,-10.0017,-10.007,-10.0015,-10.0048,-10.0061,-10.0056,-10.0091,-10.018,-10.0242,-10.0323,-10.0558,-10.0558,-10.0671,-10.0711,-10.0743,-10.077,-10.0895,-10.0945,-10.041,-10.0409,-10.0409,0,0,-9.9909,-9.9916,-9.9989,-10.0086,-10.0107,-10.0219,-10.0031,-10.0157,-10.0239,-10.0079,-10.0246,-10.0244,-10.0275,-10.0483,-10.0573,-10.049,-10.0918,-10.0772,-10.0798,-10.0807,-10.0923,-10.0974,-10.1019,-10.0425,-10.0422,-10.042,0,0,-10.0246,-10.0263,-10.0427,-10.0452,-10.0487,-10.0455,-10.0495,-10.0504,-10.0497,-10.0662,-10.0545,-10.064,-10.0797,-10.0825,-10.086,-10.1208,-10.1114,-10.1236,-10.1443,-10.1565,-10.1608,-10.1644,-10.1769,-10.1815,-10.1262,-10.1263,-10.1263,0,-10.0432,-10.0598,-10.0521,-10.0657,-10.0702,-10.0564,-10.0729,-10.0756,-10.0816,-10.085,-10.0756,-10.0951,-10.0962,-10.1174,-10.1259,-10.1291,-10.1333,-10.1235,-10.1608,-10.1644,-10.1677,-10.1795,-10.1843,-10.1278,-10.1276,-10.1275,-10.1273,0,-10.0825,-10.0942,-10.107,-10.1133,-10.1192,-10.1342,-10.1286,-10.1355,-10.1294,-10.1272,-10.1441,-10.145,-10.1531,-10.1577,-10.1518,-10.178,-10.1728,-10.1623,-10.1457,-10.1745,-10.1854,-10.1899,-10.1299,-10.1294,-10.1289,-10.1286,0,0,-10.1305,-10.1323,-10.1372,-10.1398,-10.1426,-10.1514,-10.1656,-10.1737,-10.1798,-10.1843,-10.1959,-10.2095,-10.1998,-10.2038,-10.198,-10.2088,-10.2363,-10.1969,-10.1968,-10.2043,-10.2653,-10.2734,-10.2788,-10.23,-10.2309,-10.2315,-10.2651,0,-10.1638,-10.1884,-10.1819,-10.2064,-10.217,-10.2041,-10.2164,-10.2194,-10.2176,-10.2262,-10.224,-10.2339,-10.2203,-10.2226,-10.2327,-10.2309,-10.2485,-10.2283,-10.2408,-10.2413,-10.2406,-10.2844,-10.293,-10.3246,-10.2693,-10.27,-10.2706,0,-10.2061,-10.2124,-10.2381,-10.2391,-10.2433,-10.2546,-10.2614,-10.2699,-10.2729,-10.2708,-10.2753,-10.2674,-10.2812,-10.2644,-10.2833,-10.2698,-10.2744,-10.2743,-10.2754,-10.2764,-10.2578,-10.2868,-10.3346,-10.3394,-10.2772,-10.2767,-10.2762,0,-10.2386,-10.2535,-10.2708,-10.2734,-10.2751,-10.2833,-10.2843,-10.2864,-10.2917,-10.2976,-10.3009,-10.3083,-10.3124,-10.3182,-10.3124,-10.3007,-10.3323,-10.315,-10.3309,-10.3311,-10.3383,-10.3379,-10.3877,-10.3411,-10.341,-10.3409,-10.3408,0,-10.2767,-10.2929,-10.2854,-10.2961,-10.3138,-10.306,-10.3237,-10.3232,-10.3252,-10.3354,-10.3245,-10.3342,-10.3259,-10.3349,-10.3304,-10.3468,-10.3486,-10.3473,-10.3459,-10.3484,-10.3486,-10.3515,-10.3492,-10.3422,-10.3419,-10.3417,-10.3414,0,-10.3161,-10.3118,-10.3298,-10.3299,-10.3302,-10.3433,-10.3433,-10.353,-10.3504,-10.3634,-10.366,-10.3619,-10.3719,-10.3667,-10.3769,-10.3739,-10.3952,-10.3907,-10.3943,-10.3932,-10.4094,-10.4081,-10.4628,-10.4697,-10.4186,-10.4191,-10.4195,0,-10.3408,-10.353,-10.3544,-10.3606,-10.3624,-10.3724,-10.3777,-10.3704,-10.3764,-10.3808,-10.3901,-10.3991,-10.406,-10.4226,-10.4204,-10.4282,-10.4239,-10.4426,-10.425,-10.4272,-10.4244,-10.4238,-10.425,-10.4462,-10.4468,-10.4473,-10.4477,0,-10.3851,-10.3823,-10.3905,-10.3982,-10.4049,-10.4104,-10.415,-10.4206,-10.4134,-10.4206,-10.4308,-10.4362,-10.4467,-10.4559,-10.4626,-10.4634,-10.4545,-10.4532,-10.4573,-10.4601,-10.4617,-10.4612,-10.4041,-10.452,-10.4516,-10.4513,-10.451,-10.4509,-10.4179,-10.4282,-10.4309,-10.4404,-10.4431,-10.4476,-10.4569,-10.4554,-10.4639,-10.472,-10.4671,-10.4791,-10.4816,-10.4897,-10.4917,-10.5009,-10.4934,-10.4994,-10.5009,-10.5025,-10.5048,-10.4601,-10.502,-10.5019,-10.5018,-10.5017,-10.5016,0,-10.4618,-10.4628,-10.4717,-10.4786,-10.4861,-10.477,-10.4816,-10.4884,-10.4992,-10.5024,-10.5094,-10.5211,-10.5299,-10.5284,-10.5364,-10.544,-10.5401,-10.5463,-10.5458,-10.5461,-10.511,-10.5067,-10.5494,-10.5494,-10.5494,-10.5494,-10.5493,-10.5493,-10.4855,-10.5024,-10.5,-10.5181,-10.5189,-10.5307,-10.5341,-10.5382,-10.5408,-10.5544,-10.5617,-10.5607,-10.562,-10.57,-10.5776,-10.5769,-10.5804,-10.5883,-10.5861,-10.5533,-10.5486,-10.5441,-10.54,-10.589,-10.5891,-10.6205,-10.6208,-10.621]}]]